Location: Newark
(49.8969°N, 3.3422°E)
Time: 15:48:00
(UTC+00:00)

Envisat - Pass Details

Date: 08 December 2019
Orbit: 764 x 766 km, 98.1° (Epoch: 18 January)

Event Time Altitude Azimuth Distance (km) Brightness Sun altitude
Rises 17:11:19 0° 154° (SSE) 3,223 6.2 -13.0°
Reaches altitude 10° 17:13:38 10° 151° (SSE) 2,301 5.4 -13.4°
Maximum altitude 17:18:38 63° 71° (ENE) 855 3.0 -14.1°
Drops below altitude 10° 17:23:41 10° 351° (N) 2,317 5.4 -14.9°
Sets 17:26:00 0° 349° (N) 3,247 6.2 -15.3°
